,,PA_Meas_PMT16A,,PR_Meas_QMR101_102,,RH_Meas_QMH101,,SR_Meas_QMS101,,TA_Meas_QMH101,,GenWind,,GenWind,
time,status,PA,status,PR,status,RH,status,SR,status,TA,status,DirAvg,status,SpdAvg,
2010-11-19, 00:00:04,VALID,917.807,VALID,0,VALID,96.5658,VALID,0,VALID,20.4244,VALID,14,VALID,0.835547,
2010-11-19, 00:01:04,VALID,917.843,VALID,0,VALID,96.4591,VALID,0,VALID,20.3838,VALID,14,VALID,0.524609,
2010-11-19, 00:02:04,VALID,917.81,VALID,0,VALID,96.5048,VALID,0,VALID,20.3838,VALID,14,VALID,0.504297,
2010-11-19, 00:03:04,VALID,917.811,VALID,0,VALID,96.4972,VALID,0,VALID,20.3643,VALID,14,VALID,0.376953,
2010-11-19, 00:04:04,VALID,917.794,VALID,0,VALID,96.4438,VALID,0,VALID,20.3464,VALID,14,VALID,0.425391,
2010-11-19, 00:05:04,VALID,917.801,VALID,0,VALID,96.5429,VALID,0,VALID,20.3659,VALID,14,VALID,0,
2010-11-19, 00:06:04,VALID,917.79,VALID,0,VALID,96.5353,VALID,0,VALID,20.3643,VALID,14,VALID,0.473047,
2010-11-19, 00:07:04,VALID,917.768,VALID,0,VALID,96.5811,VALID,0,VALID,20.4033,VALID,14,VALID,0.385156,
2010-11-19, 00:08:04,VALID,917.791,VALID,0,VALID,96.5048,VALID,0,VALID,20.3448,VALID,14,VALID,0.153516,
2010-11-19, 00:09:04,VALID,917.764,VALID,0,VALID,96.5277,VALID,0,VALID,20.3433,VALID,14,VALID,0.133203,
2010-11-19, 00:10:04,VALID,917.742,VALID,0,VALID,96.6039,VALID,0,VALID,20.4244,VALID,14,VALID,0.562891,
2010-11-19, 00:11:04,VALID,917.738,VALID,0,VALID,96.6039,VALID,0,VALID,20.4228,VALID,14,VALID,0.839063,
2010-11-19, 00:12:04,VALID,917.76,VALID,0,VALID,96.6268,VALID,0,VALID,20.4228,VALID,14,VALID,0.945313,
2010-11-19, 00:13:04,VALID,917.718,VALID,0,VALID,96.6344,VALID,0,VALID,20.4618,VALID,14,VALID,0.653906,
2010-11-19, 00:14:04,VALID,917.697,VALID,0,VALID,96.6039,VALID,0,VALID,20.4634,VALID,14,VALID,0.830859,
2010-11-19, 00:15:04,VALID,917.718,VALID,0,VALID,96.5277,VALID,0,VALID,20.4033,VALID,14,VALID,0.810547,
2010-11-19, 00:16:04,VALID,917.708,VALID,0,VALID,96.5124,VALID,0,VALID,20.3854,VALID,14,VALID,0.783594,
2010-11-19, 00:17:04,VALID,917.695,VALID,0,VALID,96.6802,VALID,0,VALID,20.4439,VALID,14,VALID,0.624219,
2010-11-19, 00:18:04,VALID,917.712,VALID,0,VALID,96.6725,VALID,0,VALID,20.4634,VALID,14,VALID,0.533594,
2010-11-19, 00:19:04,VALID,917.686,VALID,0,VALID,96.7259,VALID,0,VALID,20.5219,VALID,14,VALID,0.630859,
2010-11-19, 00:20:04,VALID,917.684,VALID,0,VALID,96.7107,VALID,0,VALID,20.5219,VALID,14,VALID,0.510938,
2010-11-19, 00:21:04,VALID,917.651,VALID,0,VALID,96.642,VALID,0,VALID,20.5024,VALID,14,VALID,0.770703,
2010-11-19, 00:22:04,VALID,917.648,VALID,0,VALID,96.6268,VALID,0,VALID,20.4634,VALID,14,VALID,0.741406,
2010-11-19, 00:23:04,VALID,917.649,VALID,0,VALID,96.6954,VALID,0,VALID,20.4829,VALID,14,VALID,0.933594,
2010-11-19, 00:24:04,VALID,917.615,VALID,0,VALID,96.6725,VALID,0,VALID,20.4618,VALID,14,VALID,0.850781,
2010-11-19, 00:25:04,VALID,917.615,VALID,0,VALID,96.6115,VALID,0,VALID,20.4829,VALID,14,VALID,0.915234,
2010-11-19, 00:26:04,VALID,917.613,VALID,0,VALID,96.6344,VALID,0,VALID,20.4618,VALID,14,VALID,0.923828,
2010-11-19, 00:27:04,VALID,917.608,VALID,0,VALID,96.703,VALID,0,VALID,20.4634,VALID,14,VALID,0.565234,
2010-11-19, 00:28:04,VALID,917.616,VALID,0,VALID,96.6802,VALID,0,VALID,20.4618,VALID,14,VALID,0.691406,
2010-11-19, 00:29:04,VALID,917.641,VALID,0,VALID,96.6573,VALID,0,VALID,20.4408,VALID,14,VALID,0.730859,
2010-11-19, 00:30:04,VALID,917.607,VALID,0,VALID,96.7259,VALID,0.107441,VALID,20.4408,VALID,14,VALID,0.857813,
2010-11-19, 00:31:04,VALID,917.58,VALID,0,VALID,96.7564,VALID,0.107441,VALID,20.5009,VALID,15,VALID,0.783594,
2010-11-19, 00:32:04,VALID,917.593,VALID,0,VALID,96.6039,VALID,0.107441,VALID,20.4618,VALID,14,VALID,0.680078,
2010-11-19, 00:33:04,VALID,917.591,VALID,0,VALID,96.6497,VALID,0,VALID,20.4423,VALID,14,VALID,0.769141,
2010-11-19, 00:34:04,VALID,917.596,VALID,0,VALID,96.6954,VALID,0,VALID,20.4423,VALID,14,VALID,0.816797,
2010-11-19, 00:35:04,VALID,917.518,VALID,0,VALID,96.7107,VALID,0.107441,VALID,20.4618,VALID,14,VALID,0.918359,
2010-11-19, 00:36:04,VALID,917.528,VALID,0,VALID,96.7564,VALID,0.107441,VALID,20.4408,VALID,14,VALID,0.607813,
2010-11-19, 00:37:04,VALID,917.531,VALID,0,VALID,96.703,VALID,0.107441,VALID,20.4423,VALID,14,VALID,1.0668,
2010-11-19, 00:38:04,VALID,917.5,VALID,0,VALID,96.7411,VALID,0.107441,VALID,20.4618,VALID,14,VALID,0.506641,
2010-11-19, 00:39:04,VALID,917.51,VALID,0,VALID,96.764,VALID,0,VALID,20.4618,VALID,14,VALID,0.863672,
2010-11-19, 00:40:04,VALID,917.517,VALID,0,VALID,96.7564,VALID,0,VALID,20.4618,VALID,14,VALID,0.58125,
2010-11-19, 00:41:04,VALID,917.505,VALID,0,VALID,96.7564,VALID,0.107441,VALID,20.5009,VALID,14,VALID,0.817578,
2010-11-19, 00:42:04,VALID,917.493,VALID,0,VALID,96.7259,VALID,0.107441,VALID,20.4813,VALID,14,VALID,1.12227,
2010-11-19, 00:43:04,VALID,917.513,VALID,0,VALID,96.6954,VALID,0.107441,VALID,20.4423,VALID,14,VALID,0.439453,
2010-11-19, 00:44:04,VALID,917.47,VALID,0,VALID,96.6573,VALID,0.107441,VALID,20.4033,VALID,14,VALID,0.903125,
2010-11-19, 00:45:04,VALID,917.451,VALID,0,VALID,96.7107,VALID,0.107441,VALID,20.4018,VALID,14,VALID,0.843359,
2010-11-19, 00:46:04,VALID,917.478,VALID,0,VALID,96.6497,VALID,0.107441,VALID,20.3643,VALID,14,VALID,0.647656,
2010-11-19, 00:47:04,VALID,917.437,VALID,0,VALID,96.5887,VALID,0.107441,VALID,20.3253,VALID,354,VALID,1.08398,
2010-11-19, 00:48:04,VALID,917.417,VALID,0,VALID,96.6802,VALID,0,VALID,20.3253,VALID,354,VALID,1.04453,
2010-11-19, 00:49:04,VALID,917.437,VALID,0,VALID,96.6878,VALID,0,VALID,20.3043,VALID,354,VALID,0.992578,
2010-11-19, 00:50:04,VALID,917.389,VALID,0,VALID,96.6725,VALID,0.107441,VALID,20.3253,VALID,353,VALID,1.09687,
2010-11-19, 00:51:04,VALID,917.379,VALID,0,VALID,96.6115,VALID,0.107441,VALID,20.2668,VALID,10,VALID,1.44844,
2010-11-19, 00:52:04,VALID,917.396,VALID,0,VALID,96.6649,VALID,0,VALID,20.2473,VALID,10,VALID,1.03867,
2010-11-19, 00:53:04,VALID,917.413,VALID,0,VALID,96.7488,VALID,0,VALID,20.2473,VALID,10,VALID,0.875391,
2010-11-19, 00:54:04,VALID,917.379,VALID,0,VALID,96.7411,VALID,0.107441,VALID,20.2863,VALID,10,VALID,0.901563,
2010-11-19, 00:55:04,VALID,917.347,VALID,0,VALID,96.7716,VALID,0,VALID,20.2668,VALID,10,VALID,0.857422,
2010-11-19, 00:56:04,VALID,917.353,VALID,0,VALID,96.764,VALID,0,VALID,20.2668,VALID,358,VALID,1.26953,
2010-11-19, 00:57:04,VALID,917.336,VALID,0,VALID,96.703,VALID,0,VALID,20.2473,VALID,352,VALID,0.916797,
2010-11-19, 00:58:04,VALID,917.313,VALID,0,VALID,96.7335,VALID,0.107441,VALID,20.2278,VALID,352,VALID,0.962109,
2010-11-19, 00:59:04,VALID,917.307,VALID,0,VALID,96.7716,VALID,0.107441,VALID,20.2263,VALID,352,VALID,0.767187,
2010-11-19, 01:00:04,VALID,917.321,VALID,0,VALID,96.7793,VALID,0,VALID,20.2668,VALID,22,VALID,1.39688,
2010-11-19, 01:01:04,VALID,917.307,VALID,0,VALID,96.7716,VALID,0.107441,VALID,20.2458,VALID,22,VALID,0.649609,
2010-11-19, 01:02:04,VALID,917.276,VALID,0,VALID,96.7488,VALID,0.107441,VALID,20.2473,VALID,22,VALID,1.09258,
2010-11-19, 01:03:04,VALID,917.264,VALID,0,VALID,96.7488,VALID,0.107441,VALID,20.2278,VALID,22,VALID,1.09023,
2010-11-19, 01:04:04,VALID,917.266,VALID,0,VALID,96.7945,VALID,0.107441,VALID,20.2278,VALID,24,VALID,1.34375,
2010-11-19, 01:05:04,VALID,917.256,VALID,0,VALID,96.8174,VALID,0.107441,VALID,20.2278,VALID,24,VALID,1.25508,
2010-11-19, 01:06:04,VALID,917.262,VALID,0,VALID,96.8403,VALID,0.107441,VALID,20.2668,VALID,24,VALID,0.857813,
2010-11-19, 01:07:04,VALID,917.236,VALID,0,VALID,96.7869,VALID,0.107441,VALID,20.2278,VALID,305,VALID,0.834766,
2010-11-19, 01:08:04,VALID,917.224,VALID,0,VALID,96.8021,VALID,0.107441,VALID,20.2473,VALID,305,VALID,0.984375,
2010-11-19, 01:09:04,VALID,917.235,VALID,0,VALID,96.7945,VALID,0.107441,VALID,20.2473,VALID,305,VALID,0.932422,
2010-11-19, 01:10:04,VALID,917.217,VALID,0,VALID,96.8174,VALID,0.107441,VALID,20.2473,VALID,30,VALID,1.64766,
2010-11-19, 01:11:04,VALID,917.217,VALID,0,VALID,96.8098,VALID,0.107441,VALID,20.2458,VALID,31,VALID,1.6207,
2010-11-19, 01:12:04,VALID,917.201,VALID,0,VALID,96.8403,VALID,0,VALID,20.2668,VALID,31,VALID,1.39258,
2010-11-19, 01:13:04,VALID,917.205,VALID,0,VALID,96.8707,VALID,0.107441,VALID,20.2863,VALID,31,VALID,1.19062,
2010-11-19, 01:14:04,VALID,917.164,VALID,0,VALID,96.8936,VALID,0,VALID,20.3043,VALID,31,VALID,0.902344,
2010-11-19, 01:15:04,VALID,917.182,VALID,0,VALID,96.8403,VALID,0,VALID,20.3058,VALID,31,VALID,0.622266,
2010-11-19, 01:16:04,VALID,917.153,VALID,0,VALID,96.7564,VALID,0,VALID,20.2863,VALID,31,VALID,1.07031,
2010-11-19, 01:17:04,VALID,917.146,VALID,0,VALID,96.7411,VALID,0,VALID,20.2668,VALID,31,VALID,0.796875,
2010-11-19, 01:18:04,VALID,917.122,VALID,0,VALID,96.8403,VALID,0.107441,VALID,20.2458,VALID,31,VALID,0.673437,
2010-11-19, 01:19:04,VALID,917.146,VALID,0,VALID,96.8021,VALID,0.107441,VALID,20.3058,VALID,31,VALID,1.26875,
2010-11-19, 01:20:04,VALID,917.123,VALID,0,VALID,96.825,VALID,0,VALID,20.2653,VALID,30,VALID,0.837891,
2010-11-19, 01:21:04,VALID,917.082,VALID,0,VALID,96.7564,VALID,0,VALID,20.2668,VALID,31,VALID,1.14805,
2010-11-19, 01:22:04,VALID,917.094,VALID,0,VALID,96.7869,VALID,0,VALID,20.2278,VALID,31,VALID,0.766016,
2010-11-19, 01:23:04,VALID,917.093,VALID,0,VALID,96.7793,VALID,0.107441,VALID,20.2278,VALID,31,VALID,1.36133,
2010-11-19, 01:24:04,VALID,917.063,VALID,0,VALID,96.7488,VALID,0,VALID,20.2473,VALID,31,VALID,0.694141,
2010-11-19, 01:25:04,VALID,917.068,VALID,0,VALID,96.7488,VALID,0,VALID,20.2083,VALID,30,VALID,0.383203,
2010-11-19, 01:26:04,VALID,917.058,VALID,0,VALID,96.7945,VALID,0.107441,VALID,20.2473,VALID,31,VALID,0.754687,
2010-11-19, 01:27:04,VALID,917.023,VALID,0,VALID,96.825,VALID,0,VALID,20.2473,VALID,30,VALID,1.03008,
2010-11-19, 01:28:04,VALID,917.012,VALID,0,VALID,96.8936,VALID,0,VALID,20.3058,VALID,31,VALID,0.873047,
2010-11-19, 01:29:04,VALID,917.004,VALID,0,VALID,96.7411,VALID,0.107441,VALID,20.2278,VALID,24,VALID,1.53789,
2010-11-19, 01:30:04,VALID,916.96,VALID,0,VALID,96.7793,VALID,0,VALID,20.2473,VALID,24,VALID,1.07109,
2010-11-19, 01:31:04,VALID,916.947,VALID,0,VALID,96.8403,VALID,0,VALID,20.2668,VALID,24,VALID,1.45039,
2010-11-19, 01:32:04,VALID,916.927,VALID,0,VALID,96.6954,VALID,0,VALID,20.1888,VALID,8,VALID,1.76406,
2010-11-19, 01:33:04,VALID,916.911,VALID,0,VALID,96.764,VALID,0,VALID,20.1888,VALID,2,VALID,1.07031,
2010-11-19, 01:34:05,VALID,916.907,VALID,0,VALID,96.7488,VALID,0.107441,VALID,20.1888,VALID,2,VALID,0.876953,
2010-11-19, 01:35:05,VALID,916.846,VALID,0,VALID,96.7869,VALID,0,VALID,20.1498,VALID,355,VALID,0.680078,
2010-11-19, 01:36:05,VALID,916.834,VALID,0,VALID,96.7793,VALID,0,VALID,20.1498,VALID,356,VALID,1.37617,
2010-11-19, 01:37:05,VALID,916.801,VALID,0,VALID,96.7716,VALID,0,VALID,20.1303,VALID,355,VALID,1.15664,
2010-11-19, 01:38:05,VALID,916.797,VALID,0,VALID,96.825,VALID,0.107441,VALID,20.1303,VALID,355,VALID,0.585156,
2010-11-19, 01:39:05,VALID,916.777,VALID,0,VALID,96.8555,VALID,0,VALID,20.1693,VALID,355,VALID,1.11563,
2010-11-19, 01:40:05,VALID,916.762,VALID,0,VALID,96.825,VALID,0,VALID,20.1888,VALID,17,VALID,0.658984,
2010-11-19, 01:41:05,VALID,916.765,VALID,0,VALID,96.825,VALID,0.107441,VALID,20.1303,VALID,43,VALID,0.844531,
2010-11-19, 01:42:05,VALID,916.756,VALID,0,VALID,96.886,VALID,0,VALID,20.1483,VALID,43,VALID,0.753125,
2010-11-19, 01:43:05,VALID,916.719,VALID,0,VALID,96.7869,VALID,0,VALID,20.1108,VALID,43,VALID,0.825391,
2010-11-19, 01:44:05,VALID,916.722,VALID,0,VALID,96.8098,VALID,0,VALID,20.1303,VALID,42,VALID,0.462891,
2010-11-19, 01:45:05,VALID,916.699,VALID,0,VALID,96.8174,VALID,0,VALID,20.1108,VALID,42,VALID,0.562109,
2010-11-19, 01:46:05,VALID,916.719,VALID,0,VALID,96.8403,VALID,0,VALID,20.1303,VALID,42,VALID,0.909375,
2010-11-19, 01:47:05,VALID,916.677,VALID,0,VALID,96.825,VALID,0,VALID,20.1303,VALID,42,VALID,0,
2010-11-19, 01:48:05,VALID,916.695,VALID,0,VALID,96.8174,VALID,0,VALID,20.0913,VALID,42,VALID,0,
2010-11-19, 01:49:05,VALID,916.675,VALID,0,VALID,96.8174,VALID,0,VALID,20.0898,VALID,42,VALID,0.479688,
2010-11-19, 01:50:05,VALID,916.667,VALID,0,VALID,96.8631,VALID,0.107441,VALID,20.1108,VALID,42,VALID,0.0515625,
2010-11-19, 01:51:05,VALID,916.626,VALID,0,VALID,96.8326,VALID,0,VALID,20.1108,VALID,42,VALID,0.209375,
2010-11-19, 01:52:05,VALID,916.628,VALID,0,VALID,96.8326,VALID,0,VALID,20.1108,VALID,42,VALID,0.0496094,
2010-11-19, 01:53:05,VALID,916.625,VALID,0,VALID,96.825,VALID,0,VALID,20.0913,VALID,42,VALID,0.453906,
2010-11-19, 01:54:05,VALID,916.618,VALID,0,VALID,96.8784,VALID,0,VALID,20.1108,VALID,42,VALID,0,
2010-11-19, 01:55:05,VALID,916.594,VALID,0,VALID,96.8326,VALID,0,VALID,20.1108,VALID,42,VALID,0.179688,
2010-11-19, 01:56:05,VALID,916.569,VALID,0,VALID,96.8098,VALID,0,VALID,20.0913,VALID,42,VALID,0,
2010-11-19, 01:57:05,VALID,916.585,VALID,0,VALID,96.8631,VALID,0,VALID,20.1108,VALID,42,VALID,0,
2010-11-19, 01:58:05,VALID,916.54,VALID,0,VALID,96.8098,VALID,0.107441,VALID,20.1108,VALID,42,VALID,0,
2010-11-19, 01:59:05,VALID,916.563,VALID,0,VALID,96.8326,VALID,0.107441,VALID,20.1108,VALID,42,VALID,0,
2010-11-19, 02:00:05,VALID,916.53,VALID,0,VALID,96.825,VALID,0,VALID,20.0898,VALID,42,VALID,0,
2010-11-19, 02:01:05,VALID,916.498,VALID,0,VALID,96.8403,VALID,0.107441,VALID,20.1303,VALID,42,VALID,0,
2010-11-19, 02:02:05,VALID,916.509,VALID,0,VALID,96.8021,VALID,0.107441,VALID,20.0913,VALID,42,VALID,0,
2010-11-19, 02:03:05,VALID,916.506,VALID,0,VALID,96.7716,VALID,0.107441,VALID,20.0703,VALID,42,VALID,0,
2010-11-19, 02:04:05,VALID,916.496,VALID,0,VALID,96.886,VALID,0,VALID,20.1303,VALID,42,VALID,0.477734,
2010-11-19, 02:05:05,VALID,916.497,VALID,0,VALID,96.8555,VALID,0,VALID,20.1498,VALID,42,VALID,0.339453,
2010-11-19, 02:06:05,VALID,916.456,VALID,0,VALID,96.8479,VALID,0,VALID,20.1288,VALID,43,VALID,0.398047,
2010-11-19, 02:07:05,VALID,916.463,VALID,0,VALID,96.7945,VALID,0,VALID,20.1093,VALID,42,VALID,0,
2010-11-19, 02:08:05,VALID,916.431,VALID,0,VALID,96.7945,VALID,0.107441,VALID,20.1108,VALID,42,VALID,0,
2010-11-19, 02:09:05,VALID,916.426,VALID,0,VALID,96.8631,VALID,0,VALID,20.1513,VALID,42,VALID,0,
2010-11-19, 02:10:05,VALID,916.403,VALID,0,VALID,96.8326,VALID,0,VALID,20.1498,VALID,42,VALID,0,
2010-11-19, 02:11:05,VALID,916.374,VALID,0,VALID,96.8021,VALID,0,VALID,20.1303,VALID,42,VALID,0,
2010-11-19, 02:12:05,VALID,916.347,VALID,0,VALID,96.8403,VALID,0,VALID,20.1303,VALID,42,VALID,0,
2010-11-19, 02:13:05,VALID,916.333,VALID,0,VALID,96.7564,VALID,0,VALID,20.0898,VALID,42,VALID,0,
2010-11-19, 02:14:05,VALID,916.307,VALID,0,VALID,96.8021,VALID,0,VALID,20.1108,VALID,42,VALID,0,
2010-11-19, 02:15:05,VALID,916.303,VALID,0,VALID,96.8098,VALID,0,VALID,20.1108,VALID,42,VALID,0,
2010-11-19, 02:16:05,VALID,916.268,VALID,0,VALID,96.8631,VALID,0,VALID,20.1318,VALID,42,VALID,0,
2010-11-19, 02:17:05,VALID,916.254,VALID,0,VALID,96.7945,VALID,0.107441,VALID,20.0703,VALID,43,VALID,0,
2010-11-19, 02:18:05,VALID,916.244,VALID,0,VALID,96.7488,VALID,0,VALID,20.0718,VALID,43,VALID,0,
2010-11-19, 02:19:05,VALID,916.216,VALID,0,VALID,96.7411,VALID,0.107441,VALID,20.0523,VALID,42,VALID,0,
2010-11-19, 02:20:05,VALID,916.186,VALID,0,VALID,96.8098,VALID,0,VALID,20.0733,VALID,42,VALID,0,
2010-11-19, 02:21:05,VALID,916.154,VALID,0,VALID,96.8479,VALID,0.107441,VALID,20.0523,VALID,43,VALID,0,
2010-11-19, 02:22:05,VALID,916.148,VALID,0,VALID,96.7869,VALID,0.107441,VALID,20.0718,VALID,42,VALID,0,
2010-11-19, 02:23:05,VALID,916.105,VALID,0,VALID,96.8174,VALID,0.107441,VALID,20.0523,VALID,42,VALID,0,
2010-11-19, 02:24:05,VALID,916.086,VALID,0,VALID,96.825,VALID,0.107441,VALID,20.0508,VALID,42,VALID,0,
2010-11-19, 02:25:05,VALID,916.081,VALID,0,VALID,96.8707,VALID,0.107441,VALID,20.1123,VALID,42,VALID,0,
2010-11-19, 02:26:05,VALID,916.028,VALID,0,VALID,96.8403,VALID,0.107441,VALID,20.0898,VALID,42,VALID,0,
2010-11-19, 02:27:05,VALID,916.018,VALID,0,VALID,96.8098,VALID,0,VALID,20.0718,VALID,42,VALID,0,
2010-11-19, 02:28:05,VALID,916.026,VALID,0,VALID,96.8479,VALID,0,VALID,20.0913,VALID,42,VALID,0,
2010-11-19, 02:29:05,VALID,915.987,VALID,0,VALID,96.825,VALID,0,VALID,20.0913,VALID,43,VALID,0,
2010-11-19, 02:30:05,VALID,916.004,VALID,0,VALID,96.7716,VALID,0,VALID,20.0718,VALID,42,VALID,0,
2010-11-19, 02:31:05,VALID,915.953,VALID,0,VALID,96.8403,VALID,0,VALID,20.0718,VALID,42,VALID,0,
2010-11-19, 02:32:05,VALID,915.944,VALID,0,VALID,96.8326,VALID,0,VALID,20.0718,VALID,42,VALID,0,
2010-11-19, 02:33:05,VALID,915.943,VALID,0,VALID,96.886,VALID,0,VALID,20.1108,VALID,42,VALID,0,
2010-11-19, 02:34:05,VALID,915.929,VALID,0,VALID,96.825,VALID,0.107441,VALID,20.1108,VALID,42,VALID,0,
2010-11-19, 02:35:05,VALID,915.908,VALID,0,VALID,96.7716,VALID,0,VALID,20.0718,VALID,42,VALID,0,
2010-11-19, 02:36:05,VALID,915.9,VALID,0,VALID,96.7716,VALID,0,VALID,20.0313,VALID,42,VALID,0,
2010-11-19, 02:37:05,VALID,915.92,VALID,0,VALID,96.8021,VALID,0.107441,VALID,20.0118,VALID,42,VALID,0,
2010-11-19, 02:38:05,VALID,915.899,VALID,0,VALID,96.8326,VALID,0,VALID,20.0733,VALID,42,VALID,0,
2010-11-19, 02:39:05,VALID,915.899,VALID,0,VALID,96.8326,VALID,0,VALID,20.0523,VALID,42,VALID,0,
2010-11-19, 02:40:05,VALID,915.897,VALID,0,VALID,96.8174,VALID,0.107441,VALID,20.0523,VALID,42,VALID,0,
2010-11-19, 02:41:05,VALID,915.874,VALID,0,VALID,96.7945,VALID,0.107441,VALID,20.0118,VALID,42,VALID,0,
2010-11-19, 02:42:05,VALID,915.899,VALID,0,VALID,96.7945,VALID,0,VALID,20.0133,VALID,42,VALID,0,
2010-11-19, 02:43:05,VALID,915.859,VALID,0,VALID,96.7335,VALID,0.107441,VALID,20.0133,VALID,42,VALID,0,
2010-11-19, 02:44:05,VALID,915.895,VALID,0,VALID,96.7107,VALID,0,VALID,19.9938,VALID,42,VALID,0,
2010-11-19, 02:45:05,VALID,915.881,VALID,0,VALID,96.7183,VALID,0,VALID,19.9338,VALID,42,VALID,0,
2010-11-19, 02:46:05,VALID,915.873,VALID,0,VALID,96.7183,VALID,0,VALID,19.9563,VALID,42,VALID,0,
2010-11-19, 02:47:05,VALID,915.844,VALID,0,VALID,96.6878,VALID,0,VALID,19.9368,VALID,42,VALID,0,
2010-11-19, 02:48:05,VALID,915.837,VALID,0,VALID,96.7335,VALID,0.107441,VALID,19.8558,VALID,42,VALID,0,
2010-11-19, 02:49:05,VALID,915.826,VALID,0,VALID,96.7107,VALID,0.107441,VALID,19.8768,VALID,42,VALID,0,
2010-11-19, 02:50:05,VALID,915.774,VALID,0,VALID,96.7107,VALID,0.107441,VALID,19.8768,VALID,42,VALID,0,
2010-11-19, 02:51:05,VALID,915.753,VALID,0,VALID,96.7564,VALID,0.107441,VALID,19.8768,VALID,42,VALID,0,
2010-11-19, 02:52:05,VALID,915.755,VALID,0,VALID,96.7335,VALID,0.107441,VALID,19.8768,VALID,42,VALID,0,
2010-11-19, 02:53:05,VALID,915.758,VALID,0,VALID,96.764,VALID,0,VALID,19.8768,VALID,42,VALID,0,
2010-11-19, 02:54:05,VALID,915.738,VALID,0,VALID,96.7488,VALID,0.107441,VALID,19.8963,VALID,42,VALID,0,
2010-11-19, 02:55:05,VALID,915.72,VALID,0,VALID,96.764,VALID,0.107441,VALID,19.9158,VALID,42,VALID,0,
2010-11-19, 02:56:05,VALID,915.699,VALID,0,VALID,96.764,VALID,0,VALID,19.8963,VALID,42,VALID,0,
2010-11-19, 02:57:05,VALID,915.72,VALID,0,VALID,96.7945,VALID,0,VALID,19.8963,VALID,42,VALID,0,
2010-11-19, 02:58:05,VALID,915.683,VALID,0,VALID,96.764,VALID,0.107441,VALID,19.8963,VALID,42,VALID,0,
2010-11-19, 02:59:05,VALID,915.677,VALID,0,VALID,96.7793,VALID,0,VALID,19.8753,VALID,42,VALID,0,
2010-11-19, 03:00:05,VALID,915.644,VALID,0,VALID,96.7564,VALID,0.107441,VALID,19.8963,VALID,42,VALID,0,
2010-11-19, 03:01:05,VALID,915.637,VALID,0,VALID,96.7411,VALID,0,VALID,19.8963,VALID,42,VALID,0,
2010-11-19, 03:02:05,VALID,915.606,VALID,0,VALID,96.7259,VALID,0.107441,VALID,19.8963,VALID,42,VALID,0,
2010-11-19, 03:03:05,VALID,915.612,VALID,0,VALID,96.7488,VALID,0,VALID,19.8963,VALID,42,VALID,0,
2010-11-19, 03:04:05,VALID,915.586,VALID,0,VALID,96.7411,VALID,0.107441,VALID,19.8963,VALID,42,VALID,0,
2010-11-19, 03:05:05,VALID,915.567,VALID,0,VALID,96.7335,VALID,0.107441,VALID,19.9158,VALID,42,VALID,0,
2010-11-19, 03:06:05,VALID,915.549,VALID,0,VALID,96.7259,VALID,0.107441,VALID,19.8768,VALID,42,VALID,0,
2010-11-19, 03:07:05,VALID,915.541,VALID,0,VALID,96.7259,VALID,0,VALID,19.8768,VALID,42,VALID,0,
2010-11-19, 03:08:05,VALID,915.549,VALID,0,VALID,96.7183,VALID,0.107441,VALID,19.8768,VALID,42,VALID,0,
2010-11-19, 03:09:05,VALID,915.511,VALID,0,VALID,96.703,VALID,0.107441,VALID,19.8573,VALID,42,VALID,0,
2010-11-19, 03:10:05,VALID,915.526,VALID,0,VALID,96.6954,VALID,0,VALID,19.8573,VALID,42,VALID,0,
2010-11-19, 03:11:05,VALID,915.517,VALID,0,VALID,96.7183,VALID,0,VALID,19.8573,VALID,42,VALID,0,
2010-11-19, 03:12:05,VALID,915.53,VALID,0,VALID,96.6802,VALID,0,VALID,19.8378,VALID,42,VALID,0,
2010-11-19, 03:13:05,VALID,915.507,VALID,0,VALID,96.6344,VALID,0.107441,VALID,19.7988,VALID,42,VALID,0,
2010-11-19, 03:14:05,VALID,915.5,VALID,0,VALID,96.6192,VALID,0,VALID,19.7598,VALID,42,VALID,0,
2010-11-19, 03:15:05,VALID,915.506,VALID,0,VALID,96.5887,VALID,0,VALID,19.7403,VALID,42,VALID,0,
2010-11-19, 03:16:05,VALID,915.481,VALID,0,VALID,96.6115,VALID,0,VALID,19.7208,VALID,42,VALID,0,
2010-11-19, 03:17:05,VALID,915.495,VALID,0,VALID,96.6115,VALID,0,VALID,19.7208,VALID,42,VALID,0,
2010-11-19, 03:18:05,VALID,915.521,VALID,0,VALID,96.6268,VALID,0,VALID,19.7013,VALID,42,VALID,0,
2010-11-19, 03:19:05,VALID,915.477,VALID,0,VALID,96.6039,VALID,0,VALID,19.7013,VALID,42,VALID,0,
2010-11-19, 03:20:05,VALID,915.488,VALID,0,VALID,96.5582,VALID,0,VALID,19.6818,VALID,42,VALID,0,
2010-11-19, 03:21:05,VALID,915.433,VALID,0,VALID,96.5429,VALID,0,VALID,19.6428,VALID,42,VALID,0,
2010-11-19, 03:22:05,VALID,915.465,VALID,0,VALID,96.5353,VALID,0,VALID,19.6233,VALID,42,VALID,0,
2010-11-19, 03:23:05,VALID,915.436,VALID,0,VALID,96.4591,VALID,0,VALID,19.5663,VALID,42,VALID,0,
2010-11-19, 03:24:05,VALID,915.441,VALID,0,VALID,96.4667,VALID,0,VALID,19.5258,VALID,42,VALID,0,
2010-11-19, 03:25:05,VALID,915.42,VALID,0,VALID,96.4819,VALID,0,VALID,19.5063,VALID,42,VALID,0,
2010-11-19, 03:26:05,VALID,915.412,VALID,0,VALID,96.5124,VALID,0,VALID,19.5273,VALID,42,VALID,0,
2010-11-19, 03:27:05,VALID,915.388,VALID,0,VALID,96.5582,VALID,0,VALID,19.5273,VALID,42,VALID,0,
2010-11-19, 03:28:05,VALID,915.41,VALID,0,VALID,96.5658,VALID,0,VALID,19.5258,VALID,42,VALID,0,
2010-11-19, 03:29:05,VALID,915.381,VALID,0,VALID,96.6039,VALID,0,VALID,19.5453,VALID,42,VALID,0,
2010-11-19, 03:30:05,VALID,915.418,VALID,0,VALID,96.642,VALID,0,VALID,19.5648,VALID,42,VALID,0,
2010-11-19, 03:31:05,VALID,915.389,VALID,0,VALID,96.6573,VALID,0,VALID,19.5858,VALID,42,VALID,0,
2010-11-19, 03:32:05,VALID,915.413,VALID,0,VALID,96.6649,VALID,0,VALID,19.6038,VALID,42,VALID,0,
2010-11-19, 03:33:05,VALID,915.398,VALID,0,VALID,96.6649,VALID,0,VALID,19.6038,VALID,42,VALID,0,
2010-11-19, 03:34:05,VALID,915.391,VALID,0,VALID,96.6649,VALID,0,VALID,19.5858,VALID,42,VALID,0,
2010-11-19, 03:35:05,VALID,915.415,VALID,0,VALID,96.6497,VALID,0,VALID,19.5648,VALID,42,VALID,0,
2010-11-19, 03:36:05,VALID,915.401,VALID,0,VALID,96.6802,VALID,0,VALID,19.5858,VALID,43,VALID,0,
2010-11-19, 03:37:05,VALID,915.393,VALID,0,VALID,96.6802,VALID,0,VALID,19.5858,VALID,42,VALID,0,
2010-11-19, 03:38:05,VALID,915.382,VALID,0,VALID,96.7107,VALID,0,VALID,19.5843,VALID,43,VALID,0,
2010-11-19, 03:39:05,VALID,915.371,VALID,0,VALID,96.7259,VALID,0,VALID,19.6053,VALID,42,VALID,0,
2010-11-19, 03:40:05,VALID,915.361,VALID,0,VALID,96.6039,VALID,0,VALID,19.5258,VALID,42,VALID,0,
2010-11-19, 03:41:05,VALID,915.385,VALID,0,VALID,96.6344,VALID,0,VALID,19.5273,VALID,42,VALID,0,
2010-11-19, 03:42:05,VALID,915.352,VALID,0,VALID,96.6192,VALID,0,VALID,19.5063,VALID,42,VALID,0,
2010-11-19, 03:43:05,VALID,915.368,VALID,0,VALID,96.6497,VALID,0,VALID,19.4673,VALID,42,VALID,0.664063,
2010-11-19, 03:44:05,VALID,915.36,VALID,0,VALID,96.6725,VALID,0,VALID,19.4688,VALID,43,VALID,0.841797,
2010-11-19, 03:45:05,VALID,915.352,VALID,0,VALID,96.6725,VALID,0,VALID,19.4478,VALID,42,VALID,0.920703,
2010-11-19, 03:46:05,VALID,915.349,VALID,0,VALID,96.6878,VALID,0,VALID,19.4493,VALID,42,VALID,1.05352,
2010-11-19, 03:47:05,VALID,915.382,VALID,0,VALID,96.7183,VALID,0,VALID,19.4298,VALID,42,VALID,1.17188,
2010-11-19, 03:48:05,VALID,915.353,VALID,0,VALID,96.7488,VALID,0,VALID,19.4298,VALID,42,VALID,0.779688,